[[{"header":{"parameterUnit":"m.s-1","parameterCategory":1,"la1":30.2991,"la2":30.254,"lo1":-89.0895,"lo2":-89.0444,"dy":0.0017,"dx":0.0017,"nx":28,"ny":28,"refTime":"2024-06-28T09:00:00:Z","depth":0,"parameterNumber":2,"parameterNumberName":"U-component_of_WINDS"},"data":[0,0,0,0,0,0,0,0,0,0,0,0,0,0,0,0,0,0,0,0,0,0,0,0,0,0,0,0,0,0,0,0,0,0,0,0,0,0,0,0,0,0,0,0,0,0,0,0,0,0,0,0,0,0,0,0,0,0,1.8215,1.8216,0,1.8314,1.8315,1.8316,1.8312,1.8311,1.8309,1.8308,1.841,1.8414,1.8418,0,0,0,0,0,0,0,0,0,0,0,0,0,1.802,1.8023,1.8215,1.8216,1.8217,1.8314,1.8315,1.8317,1.8312,1.8311,1.8309,1.8307,1.8409,1.8413,1.8418,0,0,0,0,0,0,0,0,0,0,0,0,0,1.811,1.8024,1.8214,1.8227,1.8229,1.8314,1.8315,1.8317,1.8313,1.8311,1.8309,1.8307,1.8407,1.8413,1.8419,1.8498,0,0,1.8437,1.844,0,0,0,0,0,0,0,0,1.8105,1.8117,1.8224,1.8226,1.8228,1.8299,1.8284,1.8378,1.8313,1.8281,1.8308,1.8306,1.8375,1.8383,1.8407,1.8503,1.8508,1.8438,1.8442,1.8444,1.8446,0,0,0,0,0,0,0,1.8099,1.8113,1.8254,1.8225,1.8228,1.8227,1.8237,1.8302,1.8338,1.8284,1.8283,1.8295,1.8376,1.8401,1.8409,1.8509,1.8438,1.8443,1.8447,1.8449,1.8674,1.8676,0,0,0,0,0,0,1.809,1.8108,1.8251,1.8257,1.816,1.8232,1.8244,1.8278,1.8338,1.8345,1.8297,1.8295,1.8391,1.8402,1.8413,1.8508,1.8444,1.845,1.8453,1.8672,1.8674,1.8677,0,0,0,0,0,0,1.8086,1.8103,1.8247,1.8182,1.8201,1.8238,1.8276,1.8281,1.8306,1.8348,1.8354,1.8316,1.839,1.8404,1.8477,1.8511,1.8453,1.8458,1.8669,1.8672,1.8676,1.87,0,0,0,0,0,0,1.808,1.8101,1.8132,1.8183,1.8204,1.831,1.8278,1.8285,1.8317,1.8315,1.8367,1.8374,1.839,1.8468,1.8483,1.8519,1.8463,1.8666,1.867,1.8675,1.8696,1.8704,1.8711,0,0,0,0,0,1.8073,1.8135,1.8134,1.8151,1.8244,1.8312,1.8324,1.834,1.832,1.8351,1.8377,1.8372,1.8505,1.8475,1.8492,1.853,1.8664,1.8669,1.8674,1.8693,1.8702,1.871,0,0,0,0,0,0,1.8088,1.8142,1.8141,1.8222,1.8262,1.8311,1.835,1.835,1.8397,1.8393,1.8412,1.8424,1.8496,1.8521,1.8486,1.8609,1.8582,1.8591,1.859,1.86,1.8607,1.8599,1.8468,0,0,0,0,0,1.81,1.8151,1.8196,1.8263,1.8283,1.8313,1.8344,1.8353,1.8395,1.8413,1.8444,1.8486,1.8536,1.857,1.8619,1.87,1.8711,1.8735,1.8742,1.8748,1.8755,1.8798,1.8808,1.8694,1.8694,1.8694,0,0,1.8127,1.8163,1.8194,1.8267,1.8299,1.8351,1.8328,1.8384,1.8422,1.8421,1.8491,1.8516,1.8563,1.864,1.8675,1.8663,1.8789,1.8754,1.8758,1.8763,1.8804,1.8815,1.8824,1.8698,1.8697,1.8697,0,0,1.8201,1.8234,1.8293,1.8325,1.8374,1.8394,1.8408,1.8457,1.8473,1.8543,1.8543,1.8589,1.8677,1.871,1.8738,1.8824,1.8821,1.884,1.8876,1.8918,1.8927,1.8935,1.8964,1.8974,1.8847,1.8847,1.8847,0,1.8228,1.8306,1.8323,1.8379,1.841,1.8411,1.847,1.8501,1.8564,1.8585,1.857,1.8679,1.8711,1.8795,1.8815,1.8839,1.8855,1.8833,1.8925,1.8933,1.894,1.8968,1.8979,1.8849,1.8849,1.8848,1.8848,0,1.8335,1.8389,1.8431,1.849,1.8527,1.8584,1.8609,1.8643,1.8649,1.867,1.8741,1.878,1.8836,1.8857,1.8864,1.8941,1.8931,1.8921,1.8893,1.8953,1.8979,1.899,1.8851,1.8851,1.885,1.885,0,0,1.8421,1.8489,1.8504,1.853,1.8584,1.8626,1.8683,1.8737,1.8766,1.8809,1.8856,1.893,1.892,1.8952,1.8963,1.8999,1.9063,1.8984,1.8985,1.8996,1.9149,1.9155,1.9167,1.9061,1.9064,1.9065,1.9144,0,1.85,1.86,1.8616,1.8704,1.8754,1.8755,1.8804,1.8842,1.8863,1.8908,1.8931,1.8982,1.8966,1.8985,1.9021,1.9047,1.9093,1.9042,1.9104,1.9106,1.9091,1.9182,1.9189,1.9262,1.9155,1.9156,1.9158,0,1.8605,1.865,1.8742,1.8788,1.8809,1.8853,1.8904,1.8947,1.899,1.9002,1.9038,1.9044,1.9102,1.9072,1.9152,1.9117,1.9143,1.916,1.9163,1.9168,1.9135,1.9188,1.9285,1.9296,1.9174,1.9173,1.9172,0,1.8656,1.874,1.8806,1.8829,1.8884,1.8915,1.8939,1.898,1.9011,1.9056,1.9076,1.9127,1.9154,1.9193,1.9213,1.919,1.929,1.9263,1.9301,1.9301,1.9322,1.932,1.9423,1.9341,1.9341,1.9341,1.9341,0,1.8741,1.8797,1.8829,1.8869,1.8932,1.895,1.9012,1.9035,1.9071,1.9116,1.9121,1.9162,1.9186,1.9231,1.9246,1.9309,1.9322,1.9333,1.9336,1.9332,1.933,1.9348,1.9343,1.9344,1.9343,1.9343,1.9342,0,1.8808,1.8832,1.8904,1.895,1.8963,1.9007,1.9046,1.9085,1.9106,1.9162,1.9176,1.9208,1.9261,1.9284,1.935,1.936,1.9431,1.9432,1.9417,1.9417,1.9454,1.9449,1.9572,1.9588,1.9496,1.9497,1.9498,0,1.886,1.8903,1.8954,1.8984,1.9009,1.9058,1.9089,1.9109,1.9141,1.9193,1.9225,1.9278,1.9321,1.9406,1.9435,1.9485,1.9486,1.9525,1.9493,1.9487,1.9484,1.9481,1.9484,1.953,1.9531,1.9532,1.9533,0,1.8949,1.8958,1.9004,1.9054,1.9091,1.9131,1.9171,1.9195,1.922,1.9257,1.9311,1.9344,1.9411,1.9463,1.9514,1.9539,1.954,1.9542,1.9554,1.9549,1.9538,1.9542,1.9431,1.9539,1.9539,1.9538,1.9538,1.9537,1.9009,1.9047,1.9088,1.9138,1.917,1.9206,1.9244,1.9269,1.9314,1.9369,1.9378,1.9436,1.9476,1.9545,1.9572,1.9617,1.9607,1.9624,1.9628,1.9631,1.9633,1.9532,1.9627,1.9626,1.9626,1.9626,1.9626,0,1.9097,1.9123,1.9169,1.9223,1.9263,1.926,1.9303,1.9336,1.9386,1.9424,1.9466,1.9528,1.9578,1.9611,1.9662,1.9691,1.9692,1.9703,1.9701,1.9706,1.9639,1.9624,1.9701,1.9701,1.9701,1.9701,1.9701,1.9701,1.9147,1.921,1.9224,1.9303,1.9329,1.9384,1.9409,1.9442,1.9472,1.954,1.9582,1.9603,1.9638,1.9692,1.9737,1.9746,1.9764,1.9775,1.9783,1.9719,1.9711,1.9704,1.9689,1.9779,1.9779,1.9846,1.9846,1.9847]},{"header":{"parameterUnit":"m.s-1","parameterCategory":1,"la1":30.2991,"la2":30.254,"lo1":-89.0895,"lo2":-89.0444,"dy":0.0017,"dx":0.0017,"nx":28,"ny":28,"refTime":"2024-06-28T09:00:00:Z","depth":0,"parameterNumber":3,"parameterNumberName":"V-component_of_WINDS"},"data":[0,0,0,0,0,0,0,0,0,0,0,0,0,0,0,0,0,0,0,0,0,0,0,0,0,0,0,0,0,0,0,0,0,0,0,0,0,0,0,0,0,0,0,0,0,0,0,0,0,0,0,0,0,0,0,0,0,0,3.7441,3.7442,0,3.7522,3.7523,3.7524,3.7472,3.7469,3.7467,3.7464,3.7547,3.7551,3.7556,0,0,0,0,0,0,0,0,0,0,0,0,0,3.7239,3.7243,3.7441,3.7442,3.7443,3.7522,3.7523,3.7524,3.7472,3.7469,3.7466,3.7463,3.7546,3.7551,3.7556,0,0,0,0,0,0,0,0,0,0,0,0,0,3.7324,3.7245,3.7441,3.7426,3.7426,3.7522,3.7523,3.7524,3.7473,3.7469,3.7465,3.7462,3.7544,3.755,3.7557,3.7671,0,0,3.7577,3.758,0,0,0,0,0,0,0,0,3.732,3.7332,3.7427,3.7428,3.7427,3.7483,3.7482,3.7573,3.7474,3.7455,3.7464,3.746,3.7529,3.7536,3.756,3.7675,3.7678,3.7578,3.7582,3.7585,3.7587,0,0,0,0,0,0,0,3.7314,3.7328,3.7473,3.7429,3.7429,3.7415,3.7423,3.7499,3.7511,3.7456,3.7453,3.7463,3.7528,3.7553,3.7561,3.768,3.7578,3.7584,3.7588,3.7591,3.7891,3.7894,0,0,0,0,0,0,3.7309,3.7323,3.747,3.7475,3.7363,3.7422,3.7431,3.7469,3.751,3.7513,3.7466,3.746,3.7544,3.7553,3.7564,3.7699,3.7585,3.7591,3.7595,3.7887,3.7892,3.7896,0,0,0,0,0,0,3.7305,3.7323,3.7467,3.7398,3.7416,3.7429,3.7472,3.7472,3.7497,3.7518,3.7519,3.749,3.7541,3.7554,3.7644,3.7701,3.7594,3.76,3.7882,3.7888,3.7894,3.797,0,0,0,0,0,0,3.7299,3.7322,3.7365,3.74,3.742,3.7547,3.7476,3.7476,3.7509,3.7502,3.754,3.7543,3.7539,3.7635,3.7651,3.7708,3.7606,3.7877,3.7885,3.7892,3.7963,3.7978,3.7991,0,0,0,0,0,3.7292,3.7384,3.7368,3.7386,3.7475,3.755,3.7561,3.7555,3.7514,3.7558,3.757,3.7542,3.7692,3.7644,3.7662,3.7722,3.7873,3.7883,3.7891,3.7956,3.7975,3.7991,0,0,0,0,0,0,3.7356,3.7388,3.7371,3.7476,3.7511,3.7541,3.7596,3.7576,3.7622,3.7614,3.7604,3.7613,3.7707,3.7724,3.767,3.7834,3.7776,3.7789,3.782,3.7838,3.7852,3.7845,3.7611,0,0,0,0,0,3.7383,3.7441,3.7466,3.7557,3.7575,3.7583,3.7616,3.7608,3.7643,3.7657,3.7677,3.7712,3.7767,3.7803,3.7855,3.7965,3.7972,3.8015,3.8029,3.8041,3.8052,3.811,3.8129,3.7925,3.7925,3.7925,0,0,3.7438,3.7462,3.75,3.757,3.7596,3.7657,3.7596,3.7663,3.7707,3.7667,3.7753,3.7769,3.7807,3.7907,3.7952,3.7924,3.811,3.8052,3.8061,3.8066,3.8121,3.814,3.8158,3.7931,3.793,3.7929,0,0,3.7568,3.7594,3.7671,3.7698,3.7738,3.7742,3.7761,3.7795,3.7803,3.7889,3.786,3.7913,3.8008,3.8036,3.8063,3.8204,3.8179,3.8221,3.8295,3.8352,3.8368,3.8382,3.8431,3.8449,3.8232,3.8232,3.8232,0,3.7632,3.7722,3.7714,3.7783,3.7814,3.7781,3.7858,3.7885,3.794,3.7962,3.7929,3.8047,3.8071,3.8176,3.8211,3.8234,3.8254,3.8216,3.8366,3.838,3.8393,3.844,3.8459,3.8237,3.8236,3.8236,3.8235,0,3.7797,3.786,3.7918,3.7971,3.8009,3.8082,3.8084,3.8124,3.8112,3.812,3.8207,3.8234,3.829,3.8315,3.8305,3.8419,3.84,3.8367,3.8309,3.8418,3.8461,3.8479,3.8244,3.8242,3.8241,3.8239,0,0,3.7971,3.8018,3.8039,3.8062,3.8103,3.8152,3.8223,3.8277,3.8311,3.8349,3.8408,3.8489,3.8458,3.8489,3.8482,3.8532,3.8639,3.8492,3.8493,3.8518,3.8765,3.8789,3.881,3.8623,3.8627,3.8629,3.8762,0,3.8103,3.8227,3.8221,3.8337,3.8395,3.8364,3.8425,3.8457,3.8466,3.8515,3.8525,3.8582,3.8538,3.8556,3.8604,3.8616,3.8689,3.8607,3.8677,3.868,3.8667,3.8833,3.8858,3.8982,3.8779,3.8782,3.8784,0,3.8274,3.8318,3.844,3.8471,3.8495,3.8551,3.8599,3.8648,3.8682,3.8685,3.8719,3.8703,3.8774,3.8714,3.8812,3.8756,3.8784,3.8794,3.8799,3.8805,3.8738,3.8842,3.9021,3.9039,3.8811,3.8808,3.8807,0,3.8387,3.8477,3.8561,3.8582,3.8621,3.866,3.8678,3.8709,3.8742,3.8785,3.8806,3.8856,3.8884,3.8923,3.8921,3.8878,3.9019,3.896,3.9023,3.9023,3.9054,3.9052,3.9239,3.9074,3.9074,3.9073,3.9073,0,3.8534,3.861,3.8611,3.8663,3.8746,3.8739,3.8821,3.8835,3.8863,3.8916,3.8892,3.8942,3.8937,3.8988,3.8987,3.9067,3.908,3.9083,3.9082,3.9085,3.9084,3.9103,3.9094,3.9078,3.9077,3.9076,3.9075,0,3.8674,3.8679,3.8768,3.8797,3.8806,3.8866,3.8891,3.8939,3.8946,3.9014,3.9029,3.9039,3.9097,3.9099,3.9166,3.9166,3.9263,3.9252,3.9251,3.9249,3.9311,3.9305,3.9516,3.9543,3.9361,3.9363,3.9365,0,3.8768,3.8825,3.886,3.8894,3.8914,3.897,3.9003,3.8997,3.9033,3.9076,3.9119,3.9175,3.9219,3.9313,3.9326,3.9377,3.9367,3.9438,3.9375,3.9375,3.9367,3.9363,3.9368,3.945,3.9452,3.9454,3.9455,0,3.8933,3.8932,3.8981,3.9031,3.9071,3.911,3.9145,3.9174,3.9173,3.9214,3.9273,3.9307,3.9375,3.943,3.948,3.9497,3.9476,3.9475,3.9492,3.9495,3.9491,3.9493,3.9283,3.947,3.9468,3.9467,3.9466,3.9466,3.9052,3.9101,3.9133,3.9188,3.9214,3.9248,3.9294,3.9307,3.9356,3.9411,3.9404,3.947,3.9502,3.9565,3.9587,3.9638,3.9613,3.9639,3.9645,3.9651,3.9657,3.9484,3.9647,3.9646,3.9646,3.9646,3.9645,0,3.9215,3.9234,3.9284,3.9335,3.9378,3.9354,3.9392,3.9429,3.9487,3.9519,3.9563,3.963,3.9684,3.9701,3.9752,3.9789,3.9781,3.9803,3.98,3.9804,3.9676,3.9656,3.9809,3.9809,3.9809,3.9809,3.9809,3.9809,3.9304,3.9385,3.9388,3.9481,3.95,3.9563,3.9587,3.9618,3.9643,3.9719,3.9763,3.9774,3.98,3.9853,3.99,3.9904,3.9924,3.995,3.9949,3.983,3.9813,3.9797,3.9778,3.9955,3.9955,4.0073,4.0074,4.0075]}]]